Volver al catálogo

COSMOS 1275 DEB

ActivoPO
NORAD 17635·DEBRIS·🇷🇺 Russia

Lanzado Jun 4, 1981 desde Plesetsk Cosmodrome

Loading…

Próximos Pases (próximas 24 horas)

TLE

ActualizadoSource: Space-Track

Época: Sep 14, 2026, 20:23 UTC

1 17635U 81053LE  26257.84958321  .00002053  00000-0  88134-3 0  9998
2 17635  82.8206 307.2219 0033254   9.0335 351.1439 14.24063189110939

Sigue COSMOS 1275 DEB en tiempo real con AllMySat

Download on the App Store